CXADT SUPE-SAZM

Flight info

Callsign CXADT
Flight time 1h 38m
Altitude 6000
Route DARKA A310 MDP
Aircraft C310/L-SDFGR/S

Departure

Time 2026-05-09 10:51
Airport El Jagüel / Punta del Este Airport (SUPE)

Arrival

Time 2026-05-09 12:29
Airport Ástor Piazzola International Airport (SAZM)
Time Latitude Longitude Altitude Speed Heading
2026-05-09 10:46 -34.91402 -54.91817 50 ft 0 kts 320°
2026-05-09 10:48 -34.91399 -54.91820 51 ft 3 kts 320°
2026-05-09 10:48 -34.91358 -54.91845 51 ft 9 kts 280°
2026-05-09 10:48 -34.91362 -54.91941 56 ft 12 kts 274°
2026-05-09 10:48 -34.91361 -54.91959 57 ft 0 kts 275°
2026-05-09 10:49 -34.91361 -54.91961 57 ft 2 kts 274°
2026-05-09 10:50 -34.91357 -54.92034 58 ft 13 kts 274°
2026-05-09 10:50 -34.91327 -54.92051 57 ft 6 kts
2026-05-09 10:50 -34.91276 -54.92047 54 ft 31 kts
2026-05-09 10:50 -34.90857 -54.92004 88 ft 77 kts
2026-05-09 10:51 -34.90316 -54.92047 317 ft 83 kts 323°
2026-05-09 10:51 -34.90217 -54.92856 333 ft 121 kts 251°
2026-05-09 10:51 -34.90851 -54.93563 739 ft 129 kts 223°
2026-05-09 10:51 -34.91608 -54.93996 1393 ft 110 kts 221°
2026-05-09 10:52 -34.92203 -54.94410 1918 ft 90 kts 226°
2026-05-09 10:52 -34.92717 -54.94779 2324 ft 84 kts 231°
2026-05-09 10:52 -34.93225 -54.95182 2595 ft 93 kts 231°
2026-05-09 10:52 -34.93796 -54.95648 2819 ft 104 kts 229°
2026-05-09 10:53 -34.94420 -54.96157 3052 ft 112 kts 228°
2026-05-09 10:53 -34.95083 -54.96702 3275 ft 118 kts 227°
2026-05-09 10:53 -34.95776 -54.97275 3489 ft 123 kts 227°
2026-05-09 10:53 -34.96452 -54.97836 3701 ft 127 kts 226°
2026-05-09 10:54 -34.97188 -54.98446 3919 ft 129 kts 226°
2026-05-09 10:54 -34.97937 -54.99070 4134 ft 131 kts 226°
2026-05-09 10:54 -34.98691 -54.99698 4348 ft 132 kts 225°
2026-05-09 10:54 -34.99450 -55.00329 4561 ft 132 kts 225°
2026-05-09 10:55 -35.00202 -55.00956 4758 ft 131 kts 226°
2026-05-09 10:55 -35.00952 -55.01582 4962 ft 130 kts 226°
2026-05-09 10:55 -35.01696 -55.02202 5161 ft 129 kts 226°
2026-05-09 10:55 -35.02435 -55.02819 5363 ft 128 kts 226°
2026-05-09 10:56 -35.03154 -55.03419 5564 ft 126 kts 225°
2026-05-09 10:56 -35.03641 -55.03827 5700 ft 125 kts 226°
2026-05-09 10:56 -35.04607 -55.04642 5810 ft 133 kts 226°
2026-05-09 10:56 -35.05397 -55.05306 5818 ft 142 kts 225°
2026-05-09 10:57 -35.06237 -55.06006 5817 ft 149 kts 224°
2026-05-09 10:57 -35.07106 -55.06731 5815 ft 153 kts 224°
2026-05-09 10:57 -35.07694 -55.07223 5818 ft 156 kts 224°
2026-05-09 10:57 -35.08598 -55.07977 5816 ft 158 kts 224°
2026-05-09 10:58 -35.09516 -55.08743 5818 ft 160 kts 224°
2026-05-09 10:58 -35.10442 -55.09518 5814 ft 161 kts 224°
2026-05-09 10:58 -35.11371 -55.10295 5816 ft 162 kts 224°
2026-05-09 10:58 -35.12303 -55.11075 5814 ft 163 kts 224°
2026-05-09 10:59 -35.13239 -55.11859 5812 ft 163 kts 224°
2026-05-09 10:59 -35.14167 -55.12636 5814 ft 163 kts 224°
2026-05-09 10:59 -35.15109 -55.13425 5814 ft 164 kts 224°
2026-05-09 10:59 -35.16051 -55.14215 5813 ft 164 kts 224°
2026-05-09 11:00 -35.16994 -55.15007 5812 ft 165 kts 224°
2026-05-09 11:00 -35.17941 -55.15802 5812 ft 165 kts 224°
2026-05-09 11:00 -35.18885 -55.16592 5810 ft 164 kts 224°
2026-05-09 11:00 -35.19828 -55.17385 5810 ft 164 kts 224°
2026-05-09 11:01 -35.20770 -55.18175 5809 ft 164 kts 224°
2026-05-09 11:01 -35.21695 -55.18954 5811 ft 163 kts 224°
2026-05-09 11:01 -35.22635 -55.19744 5809 ft 164 kts 224°
2026-05-09 11:01 -35.23353 -55.20348 5809 ft 165 kts 224°
2026-05-09 11:02 -35.24297 -55.21140 5802 ft 165 kts 224°
2026-05-09 11:02 -35.25246 -55.21938 5802 ft 165 kts 224°
2026-05-09 11:02 -35.26182 -55.22726 5802 ft 166 kts 224°
2026-05-09 11:02 -35.27093 -55.23493 5800 ft 166 kts 224°
2026-05-09 11:03 -35.28044 -55.24291 5803 ft 166 kts 224°
2026-05-09 11:03 -35.28991 -55.25090 5801 ft 165 kts 224°
2026-05-09 11:03 -35.29938 -55.25888 5804 ft 165 kts 224°
2026-05-09 11:03 -35.30874 -55.26674 5800 ft 165 kts 224°
2026-05-09 11:04 -35.31816 -55.27468 5800 ft 164 kts 224°
2026-05-09 11:04 -35.32759 -55.28261 5803 ft 164 kts 224°
2026-05-09 11:04 -35.33704 -55.29060 5800 ft 165 kts 224°
2026-05-09 11:04 -35.34651 -55.29860 5800 ft 166 kts 224°
2026-05-09 11:05 -35.35602 -55.30662 5795 ft 166 kts 224°
2026-05-09 11:05 -35.36554 -55.31465 5795 ft 166 kts 223°
2026-05-09 11:05 -35.37503 -55.32265 5795 ft 166 kts 224°
2026-05-09 11:05 -35.38397 -55.33019 5793 ft 165 kts 224°
2026-05-09 11:06 -35.39342 -55.33817 5792 ft 165 kts 224°
2026-05-09 11:06 -35.40290 -55.34618 5791 ft 165 kts 224°
2026-05-09 11:06 -35.41234 -55.35417 5793 ft 165 kts 223°
2026-05-09 11:06 -35.42183 -55.36218 5791 ft 166 kts 223°
2026-05-09 11:07 -35.43120 -55.37010 5789 ft 166 kts 224°
2026-05-09 11:07 -35.44069 -55.37812 5791 ft 166 kts 223°
2026-05-09 11:07 -35.45020 -55.38619 5787 ft 166 kts 224°
2026-05-09 11:07 -35.45917 -55.39375 5788 ft 166 kts 223°
2026-05-09 11:08 -35.46863 -55.40176 5784 ft 165 kts 224°
2026-05-09 11:08 -35.47807 -55.40974 5784 ft 165 kts 224°
2026-05-09 11:08 -35.48750 -55.41776 5788 ft 165 kts 223°
2026-05-09 11:08 -35.49700 -55.42581 5787 ft 166 kts 223°
2026-05-09 11:09 -35.50652 -55.43387 5779 ft 166 kts 223°
2026-05-09 11:09 -35.51602 -55.44190 5779 ft 166 kts 223°
2026-05-09 11:09 -35.52550 -55.44995 5781 ft 165 kts 223°
2026-05-09 11:09 -35.53498 -55.45802 5785 ft 166 kts 223°
2026-05-09 11:10 -35.54448 -55.46606 5781 ft 166 kts 223°
2026-05-09 11:10 -35.55396 -55.47412 5781 ft 166 kts 223°
2026-05-09 11:10 -35.56345 -55.48215 5777 ft 165 kts 223°
2026-05-09 11:10 -35.57042 -55.48807 5783 ft 165 kts 223°
2026-05-09 11:11 -35.57983 -55.49608 5780 ft 165 kts 223°
2026-05-09 11:11 -35.58926 -55.50410 5780 ft 165 kts 223°
2026-05-09 11:11 -35.59874 -55.51215 5783 ft 166 kts 223°
2026-05-09 11:11 -35.60827 -55.52024 5781 ft 167 kts 223°
2026-05-09 11:12 -35.61780 -55.52835 5780 ft 166 kts 223°
2026-05-09 11:12 -35.62736 -55.53646 5782 ft 167 kts 223°
2026-05-09 11:12 -35.63690 -55.54458 5777 ft 166 kts 223°
2026-05-09 11:12 -35.64319 -55.54995 5778 ft 166 kts 223°
2026-05-09 11:13 -35.65200 -55.55743 5777 ft 165 kts 223°
2026-05-09 11:13 -35.66144 -55.56549 5776 ft 165 kts 222°
2026-05-09 11:13 -35.67114 -55.57315 5776 ft 166 kts 219°
2026-05-09 11:13 -35.68099 -55.58039 5778 ft 167 kts 219°
2026-05-09 11:14 -35.69096 -55.58777 5776 ft 167 kts 219°
2026-05-09 11:14 -35.70090 -55.59518 5776 ft 167 kts 219°
2026-05-09 11:14 -35.71084 -55.60260 5777 ft 167 kts 219°
2026-05-09 11:14 -35.72076 -55.61000 5777 ft 166 kts 219°
2026-05-09 11:15 -35.73055 -55.61729 5776 ft 166 kts 219°
2026-05-09 11:15 -35.74040 -55.62465 5778 ft 166 kts 219°
2026-05-09 11:15 -35.75025 -55.63201 5777 ft 165 kts 219°
2026-05-09 11:15 -35.76009 -55.63934 5780 ft 165 kts 219°
2026-05-09 11:16 -35.76973 -55.64655 5776 ft 165 kts 219°
2026-05-09 11:16 -35.77958 -55.65392 5778 ft 166 kts 218°
2026-05-09 11:16 -35.78944 -55.66128 5776 ft 166 kts 219°
2026-05-09 11:16 -35.79928 -55.66862 5776 ft 165 kts 219°
2026-05-09 11:17 -35.80909 -55.67595 5772 ft 164 kts 219°
2026-05-09 11:17 -35.81886 -55.68327 5772 ft 164 kts 218°
2026-05-09 11:17 -35.82861 -55.69057 5771 ft 164 kts 218°
2026-05-09 11:17 -35.83835 -55.69786 5776 ft 164 kts 218°
2026-05-09 11:18 -35.84811 -55.70518 5773 ft 164 kts 218°
2026-05-09 11:18 -35.85789 -55.71248 5776 ft 164 kts 218°
2026-05-09 11:18 -35.86764 -55.71979 5773 ft 164 kts 218°
2026-05-09 11:18 -35.87725 -55.72698 5771 ft 163 kts 218°
2026-05-09 11:19 -35.88583 -55.73342 5772 ft 163 kts 218°
2026-05-09 11:19 -35.89551 -55.74067 5772 ft 163 kts 218°
2026-05-09 11:19 -35.90516 -55.74791 5772 ft 162 kts 218°
2026-05-09 11:19 -35.91479 -55.75512 5774 ft 162 kts 218°
2026-05-09 11:20 -35.91808 -55.75758 5772 ft 162 kts 218°
2026-05-09 11:20 -35.92449 -55.76239 5769 ft 162 kts 218°
2026-05-09 11:20 -35.93408 -55.76962 5769 ft 162 kts 218°
2026-05-09 11:20 -35.94373 -55.77686 5767 ft 162 kts 218°
2026-05-09 11:21 -35.95335 -55.78408 5772 ft 162 kts 217°
2026-05-09 11:21 -35.96298 -55.79131 5771 ft 161 kts 218°
2026-05-09 11:21 -35.97255 -55.79851 5774 ft 161 kts 218°
2026-05-09 11:21 -35.98213 -55.80569 5772 ft 161 kts 218°
2026-05-09 11:22 -35.99167 -55.81288 5770 ft 160 kts 217°
2026-05-09 11:22 -35.99960 -55.81882 5771 ft 160 kts 217°
2026-05-09 11:22 -36.00914 -55.82600 5771 ft 160 kts 218°
2026-05-09 11:22 -36.01863 -55.83316 5772 ft 160 kts 218°
2026-05-09 11:23 -36.02802 -55.84022 5776 ft 160 kts 217°
2026-05-09 11:23 -36.03124 -55.84262 5776 ft 160 kts 217°
2026-05-09 11:23 -36.04019 -55.84938 5776 ft 160 kts 217°
2026-05-09 11:23 -36.04968 -55.85653 5779 ft 160 kts 217°
2026-05-09 11:24 -36.05920 -55.86367 5770 ft 160 kts 217°
2026-05-09 11:24 -36.06864 -55.87080 5772 ft 159 kts 217°
2026-05-09 11:24 -36.07806 -55.87791 5777 ft 158 kts 217°
2026-05-09 11:24 -36.08747 -55.88501 5775 ft 159 kts 217°
2026-05-09 11:25 -36.09692 -55.89214 5779 ft 159 kts 217°
2026-05-09 11:25 -36.10640 -55.89930 5780 ft 160 kts 216°
2026-05-09 11:25 -36.11592 -55.90646 5778 ft 160 kts 217°
2026-05-09 11:25 -36.12544 -55.91365 5778 ft 159 kts 216°
2026-05-09 11:26 -36.13487 -55.92077 5773 ft 158 kts 216°
2026-05-09 11:26 -36.14427 -55.92786 5773 ft 158 kts 217°
2026-05-09 11:26 -36.15362 -55.93493 5775 ft 158 kts 216°
2026-05-09 11:26 -36.16286 -55.94192 5773 ft 158 kts 216°
2026-05-09 11:27 -36.17220 -55.94900 5781 ft 157 kts 216°
2026-05-09 11:27 -36.18154 -55.95605 5782 ft 157 kts 216°
2026-05-09 11:27 -36.19088 -55.96312 5780 ft 158 kts 216°
2026-05-09 11:27 -36.20025 -55.97020 5782 ft 158 kts 216°
2026-05-09 11:28 -36.20962 -55.97728 5778 ft 158 kts 216°
2026-05-09 11:28 -36.21898 -55.98437 5778 ft 157 kts 216°
2026-05-09 11:28 -36.22444 -55.98850 5778 ft 157 kts 216°
2026-05-09 11:28 -36.23379 -55.99558 5777 ft 157 kts 216°
2026-05-09 11:29 -36.24309 -56.00264 5782 ft 157 kts 216°
2026-05-09 11:29 -36.25242 -56.00970 5782 ft 157 kts 216°
2026-05-09 11:29 -36.26171 -56.01674 5780 ft 157 kts 216°
2026-05-09 11:29 -36.27100 -56.02379 5781 ft 157 kts 215°
2026-05-09 11:30 -36.27717 -56.02846 5784 ft 157 kts 215°
2026-05-09 11:30 -36.28640 -56.03546 5787 ft 157 kts 215°
2026-05-09 11:30 -36.29583 -56.04262 5785 ft 157 kts 215°
2026-05-09 11:30 -36.30505 -56.04962 5786 ft 157 kts 216°
2026-05-09 11:31 -36.31437 -56.05672 5780 ft 157 kts 215°
2026-05-09 11:31 -36.32366 -56.06374 5784 ft 156 kts 215°
2026-05-09 11:31 -36.33293 -56.07080 5785 ft 156 kts 215°
2026-05-09 11:31 -36.34215 -56.07779 5783 ft 156 kts 215°
2026-05-09 11:32 -36.35145 -56.08487 5787 ft 156 kts 215°
2026-05-09 11:32 -36.36073 -56.09191 5787 ft 157 kts 214°
2026-05-09 11:32 -36.37002 -56.09898 5789 ft 156 kts 215°
2026-05-09 11:32 -36.37929 -56.10604 5787 ft 156 kts 214°
2026-05-09 11:33 -36.38853 -56.11306 5787 ft 156 kts 214°
2026-05-09 11:33 -36.39776 -56.12009 5796 ft 159 kts 214°
2026-05-09 11:33 -36.41675 -56.13456 5793 ft 161 kts 214°
2026-05-09 11:34 -36.42631 -56.14184 5798 ft 161 kts 214°
2026-05-09 11:34 -36.43592 -56.14914 5799 ft 162 kts 214°
2026-05-09 11:34 -36.44553 -56.15649 5801 ft 163 kts 214°
2026-05-09 11:34 -36.45520 -56.16385 5795 ft 163 kts 214°
2026-05-09 11:35 -36.46485 -56.17121 5789 ft 161 kts 214°
2026-05-09 11:35 -36.47436 -56.17847 5789 ft 160 kts 214°
2026-05-09 11:35 -36.48379 -56.18566 5791 ft 159 kts 214°
2026-05-09 11:35 -36.49291 -56.19262 5785 ft 158 kts 214°
2026-05-09 11:36 -36.50226 -56.19977 5789 ft 157 kts 214°
2026-05-09 11:36 -36.51156 -56.20687 5791 ft 156 kts 214°
2026-05-09 11:36 -36.52083 -56.21393 5786 ft 156 kts 214°
2026-05-09 11:36 -36.53004 -56.22098 5787 ft 155 kts 214°
2026-05-09 11:37 -36.53923 -56.22802 5793 ft 154 kts 213°
2026-05-09 11:37 -36.54841 -56.23504 5796 ft 155 kts 214°
2026-05-09 11:37 -36.55763 -56.24209 5798 ft 156 kts 213°
2026-05-09 11:38 -36.56461 -56.24743 5795 ft 156 kts 213°
2026-05-09 11:38 -36.57389 -56.25452 5800 ft 157 kts 213°
2026-05-09 11:38 -36.58325 -56.26167 5798 ft 158 kts 214°
2026-05-09 11:39 -36.58506 -56.26307 5799 ft 158 kts 214°
2026-05-09 11:39 -36.59491 -56.27063 5798 ft 158 kts 213°
2026-05-09 11:40 -36.60472 -56.27814 5796 ft 157 kts 213°
2026-05-09 11:40 -36.61404 -56.28527 5793 ft 157 kts 213°
2026-05-09 11:40 -36.62340 -56.29244 5793 ft 157 kts 213°
2026-05-09 11:40 -36.63268 -56.29957 5791 ft 156 kts 213°
2026-05-09 11:41 -36.64189 -56.30662 5797 ft 155 kts 213°
2026-05-09 11:41 -36.65107 -56.31366 5793 ft 154 kts 213°
2026-05-09 11:41 -36.66019 -56.32067 5794 ft 154 kts 213°
2026-05-09 11:41 -36.66917 -56.32755 5791 ft 154 kts 213°
2026-05-09 11:42 -36.67826 -56.33453 5796 ft 154 kts 213°
2026-05-09 11:42 -36.68738 -56.34153 5794 ft 154 kts 213°
2026-05-09 11:42 -36.69648 -56.34853 5795 ft 154 kts 213°
2026-05-09 11:42 -36.70265 -56.35326 5797 ft 155 kts 212°
2026-05-09 11:43 -36.71406 -56.36204 5800 ft 155 kts 212°
2026-05-09 11:43 -36.72322 -56.36909 5803 ft 155 kts 212°
2026-05-09 11:43 -36.73240 -56.37612 5803 ft 155 kts 212°
2026-05-09 11:43 -36.73845 -56.38078 5803 ft 154 kts 212°
2026-05-09 11:44 -36.74971 -56.38946 5801 ft 154 kts 212°
2026-05-09 11:44 -36.75885 -56.39648 5801 ft 154 kts 212°
2026-05-09 11:44 -36.76801 -56.40354 5802 ft 154 kts 212°
2026-05-09 11:44 -36.77524 -56.40911 5799 ft 155 kts 212°
2026-05-09 11:45 -36.78130 -56.41377 5801 ft 155 kts 212°
2026-05-09 11:45 -36.79347 -56.42314 5802 ft 155 kts 212°
2026-05-09 11:45 -36.80267 -56.43024 5802 ft 155 kts 212°
2026-05-09 11:45 -36.81185 -56.43732 5794 ft 155 kts 212°
2026-05-09 11:46 -36.81560 -56.44021 5799 ft 155 kts 212°
2026-05-09 11:46 -36.82476 -56.44727 5806 ft 155 kts 212°
2026-05-09 11:46 -36.83394 -56.45435 5806 ft 154 kts 212°
2026-05-09 11:46 -36.84306 -56.46140 5805 ft 154 kts 212°
2026-05-09 11:47 -36.85110 -56.46760 5802 ft 154 kts 212°
2026-05-09 11:47 -36.86004 -56.47449 5803 ft 154 kts 212°
2026-05-09 11:47 -36.86919 -56.48157 5804 ft 155 kts 212°
2026-05-09 11:47 -36.87836 -56.48865 5801 ft 155 kts 212°
2026-05-09 11:48 -36.88750 -56.49571 5807 ft 154 kts 212°
2026-05-09 11:48 -36.89665 -56.50278 5806 ft 155 kts 211°
2026-05-09 11:48 -36.90580 -56.50985 5805 ft 155 kts 211°
2026-05-09 11:48 -36.91498 -56.51696 5809 ft 155 kts 211°
2026-05-09 11:49 -36.92415 -56.52405 5807 ft 155 kts 211°
2026-05-09 11:49 -36.93334 -56.53116 5807 ft 156 kts 211°
2026-05-09 11:49 -36.94253 -56.53827 5810 ft 155 kts 212°
2026-05-09 11:49 -36.95160 -56.54530 5809 ft 155 kts 212°
2026-05-09 11:50 -36.96078 -56.55241 5809 ft 155 kts 211°
2026-05-09 11:50 -36.96997 -56.55953 5810 ft 155 kts 211°
2026-05-09 11:50 -36.97913 -56.56662 5808 ft 155 kts 211°
2026-05-09 11:50 -36.98829 -56.57372 5812 ft 154 kts 211°
2026-05-09 11:51 -36.99275 -56.57719 5809 ft 154 kts 211°
2026-05-09 11:51 -36.99501 -56.57895 5812 ft 154 kts 211°
2026-05-09 11:51 -37.00385 -56.58579 5814 ft 154 kts 211°
2026-05-09 11:51 -37.01294 -56.59284 5811 ft 154 kts 211°
2026-05-09 11:52 -37.02201 -56.59987 5812 ft 153 kts 211°
2026-05-09 11:52 -37.03107 -56.60691 5815 ft 153 kts 211°
2026-05-09 11:52 -37.03965 -56.61356 5816 ft 153 kts 211°
2026-05-09 11:52 -37.04872 -56.62062 5818 ft 153 kts 211°
2026-05-09 11:53 -37.05779 -56.62767 5811 ft 154 kts 211°
2026-05-09 11:53 -37.06687 -56.63471 5810 ft 154 kts 211°
2026-05-09 11:53 -37.07596 -56.64179 5816 ft 154 kts 211°
2026-05-09 11:53 -37.08506 -56.64887 5817 ft 154 kts 211°
2026-05-09 11:54 -37.09407 -56.65586 5815 ft 154 kts 211°
2026-05-09 11:54 -37.10317 -56.66294 5814 ft 154 kts 211°
2026-05-09 11:54 -37.11206 -56.66987 5814 ft 153 kts 211°
2026-05-09 11:54 -37.12112 -56.67692 5814 ft 153 kts 211°
2026-05-09 11:55 -37.13015 -56.68394 5815 ft 153 kts 211°
2026-05-09 11:56 -37.17526 -56.71909 5821 ft 152 kts 211°
2026-05-09 11:56 -37.18415 -56.72603 5819 ft 152 kts 211°
2026-05-09 11:56 -37.19314 -56.73305 5819 ft 152 kts 211°
2026-05-09 11:57 -37.20213 -56.74007 5820 ft 152 kts 211°
2026-05-09 11:57 -37.21115 -56.74709 5818 ft 152 kts 211°
2026-05-09 11:57 -37.21948 -56.75361 5818 ft 152 kts 211°
2026-05-09 11:57 -37.22849 -56.76064 5820 ft 152 kts 211°
2026-05-09 11:58 -37.23748 -56.76767 5825 ft 152 kts 211°
2026-05-09 11:58 -37.24634 -56.77459 5825 ft 152 kts 211°
2026-05-09 11:58 -37.25531 -56.78160 5827 ft 152 kts 211°
2026-05-09 11:58 -37.26442 -56.78873 5828 ft 152 kts 211°
2026-05-09 11:59 -37.27330 -56.79567 5822 ft 152 kts 211°
2026-05-09 11:59 -37.28229 -56.80270 5823 ft 152 kts 211°
2026-05-09 11:59 -37.29124 -56.80971 5824 ft 152 kts 211°
2026-05-09 11:59 -37.30021 -56.81672 5825 ft 152 kts 211°
2026-05-09 12:00 -37.30913 -56.82372 5832 ft 151 kts 211°
2026-05-09 12:00 -37.31805 -56.83070 5822 ft 151 kts 211°
2026-05-09 12:00 -37.32703 -56.83774 5743 ft 154 kts 211°
2026-05-09 12:00 -37.33625 -56.84497 5639 ft 158 kts 211°
2026-05-09 12:01 -37.34563 -56.85232 5534 ft 160 kts 211°
2026-05-09 12:01 -37.35512 -56.85976 5436 ft 161 kts 211°
2026-05-09 12:01 -37.36469 -56.86727 5337 ft 163 kts 211°
2026-05-09 12:01 -37.37434 -56.87483 5237 ft 164 kts 211°
2026-05-09 12:02 -37.38404 -56.88245 5132 ft 165 kts 211°
2026-05-09 12:02 -37.39363 -56.88999 5034 ft 165 kts 211°
2026-05-09 12:02 -37.40339 -56.89765 4931 ft 165 kts 211°
2026-05-09 12:02 -37.41317 -56.90533 4834 ft 166 kts 211°
2026-05-09 12:03 -37.42296 -56.91303 4727 ft 166 kts 211°
2026-05-09 12:03 -37.43276 -56.92072 4626 ft 165 kts 211°
2026-05-09 12:03 -37.44204 -56.92802 4525 ft 165 kts 211°
2026-05-09 12:03 -37.45177 -56.93568 4422 ft 165 kts 210°
2026-05-09 12:04 -37.46151 -56.94334 4307 ft 165 kts 210°
2026-05-09 12:04 -37.47127 -56.95102 4201 ft 165 kts 210°
2026-05-09 12:04 -37.47977 -56.95771 4112 ft 166 kts 210°
2026-05-09 12:04 -37.48955 -56.96542 4007 ft 166 kts 210°
2026-05-09 12:05 -37.49939 -56.97315 3907 ft 167 kts 210°
2026-05-09 12:05 -37.50920 -56.98090 3807 ft 167 kts 210°
2026-05-09 12:05 -37.51907 -56.98868 3705 ft 168 kts 210°
2026-05-09 12:05 -37.52862 -56.99620 3613 ft 170 kts 210°
2026-05-09 12:06 -37.53865 -57.00412 3513 ft 175 kts 210°
2026-05-09 12:06 -37.54898 -57.01227 3405 ft 175 kts 211°
2026-05-09 12:06 -37.55925 -57.02039 3301 ft 173 kts 210°
2026-05-09 12:06 -37.56942 -57.02841 3200 ft 172 kts 210°
2026-05-09 12:07 -37.57954 -57.03639 3097 ft 172 kts 210°
2026-05-09 12:07 -37.58968 -57.04442 2989 ft 172 kts 210°
2026-05-09 12:07 -37.59978 -57.05239 2886 ft 171 kts 210°
2026-05-09 12:07 -37.60992 -57.06039 2782 ft 172 kts 210°
2026-05-09 12:08 -37.62008 -57.06843 2677 ft 173 kts 210°
2026-05-09 12:08 -37.63024 -57.07647 2567 ft 172 kts 210°
2026-05-09 12:08 -37.64001 -57.08419 2461 ft 160 kts 210°
2026-05-09 12:08 -37.64907 -57.09136 2346 ft 148 kts 210°
2026-05-09 12:09 -37.65750 -57.09805 2226 ft 139 kts 210°
2026-05-09 12:09 -37.66542 -57.10433 2112 ft 134 kts 210°
2026-05-09 12:09 -37.67319 -57.11048 2002 ft 130 kts 210°
2026-05-09 12:10 -37.69528 -57.12800 1670 ft 123 kts 210°
2026-05-09 12:10 -37.70254 -57.13375 1566 ft 123 kts 210°
2026-05-09 12:10 -37.70971 -57.13943 1532 ft 118 kts 210°
2026-05-09 12:11 -37.71648 -57.14481 1524 ft 112 kts 210°
2026-05-09 12:11 -37.72293 -57.14994 1515 ft 107 kts 209°
2026-05-09 12:11 -37.72909 -57.15483 1521 ft 102 kts 209°
2026-05-09 12:11 -37.73500 -57.15952 1513 ft 99 kts 209°
2026-05-09 12:12 -37.74075 -57.16409 1520 ft 96 kts 209°
2026-05-09 12:12 -37.74638 -57.16855 1515 ft 95 kts 209°
2026-05-09 12:12 -37.75191 -57.17294 1515 ft 94 kts 209°
2026-05-09 12:12 -37.75746 -57.17735 1528 ft 93 kts 209°
2026-05-09 12:13 -37.76270 -57.18153 1654 ft 85 kts 209°
2026-05-09 12:13 -37.76769 -57.18548 1687 ft 85 kts 209°
2026-05-09 12:13 -37.77276 -57.18951 1684 ft 87 kts 209°
2026-05-09 12:13 -37.77788 -57.19358 1690 ft 87 kts 209°
2026-05-09 12:14 -37.78297 -57.19762 1688 ft 86 kts 209°
2026-05-09 12:14 -37.78798 -57.20161 1695 ft 85 kts 209°
2026-05-09 12:14 -37.79298 -57.20559 1693 ft 85 kts 209°
2026-05-09 12:14 -37.79806 -57.20961 1693 ft 87 kts 209°
2026-05-09 12:15 -37.80318 -57.21369 1698 ft 87 kts 209°
2026-05-09 12:15 -37.80835 -57.21781 1697 ft 88 kts 209°
2026-05-09 12:15 -37.81375 -57.22209 1703 ft 101 kts 209°
2026-05-09 12:15 -37.82003 -57.22708 1701 ft 112 kts 208°
2026-05-09 12:16 -37.82690 -57.23255 1708 ft 122 kts 208°
2026-05-09 12:16 -37.83449 -57.23861 1706 ft 137 kts 208°
2026-05-09 12:16 -37.84304 -57.24539 1707 ft 153 kts 208°
2026-05-09 12:16 -37.85241 -57.25281 1704 ft 163 kts 210°
2026-05-09 12:17 -37.86208 -57.26059 1698 ft 165 kts 210°
2026-05-09 12:17 -37.87178 -57.26838 1704 ft 165 kts 209°
2026-05-09 12:17 -37.88124 -57.27589 1694 ft 155 kts 209°
2026-05-09 12:17 -37.89014 -57.28295 1681 ft 147 kts 210°
2026-05-09 12:18 -37.89836 -57.28952 1682 ft 136 kts 210°
2026-05-09 12:18 -37.90603 -57.29565 1679 ft 124 kts 210°
2026-05-09 12:18 -37.91294 -57.30118 1682 ft 110 kts 210°
2026-05-09 12:18 -37.91907 -57.30610 1683 ft 99 kts 209°
2026-05-09 12:19 -37.92463 -57.31055 1677 ft 91 kts 208°
2026-05-09 12:19 -37.92970 -57.31459 1680 ft 82 kts 208°
2026-05-09 12:19 -37.93434 -57.31831 1683 ft 76 kts 208°
2026-05-09 12:19 -37.93868 -57.32176 1682 ft 73 kts 208°
2026-05-09 12:20 -37.94294 -57.32524 1689 ft 73 kts 210°
2026-05-09 12:20 -37.94723 -57.32898 1687 ft 77 kts 210°
2026-05-09 12:20 -37.95174 -57.33289 1699 ft 80 kts 210°
2026-05-09 12:20 -37.95640 -57.33693 1700 ft 82 kts 210°
2026-05-09 12:21 -37.96108 -57.34100 1705 ft 83 kts 210°
2026-05-09 12:21 -37.96583 -57.34513 1700 ft 82 kts 210°
2026-05-09 12:21 -37.97044 -57.34914 1691 ft 79 kts 210°
2026-05-09 12:21 -37.97488 -57.35300 1684 ft 77 kts 209°
2026-05-09 12:22 -37.97926 -57.35680 1686 ft 77 kts 209°
2026-05-09 12:22 -37.98370 -57.36066 1689 ft 78 kts 208°
2026-05-09 12:22 -37.98821 -57.36458 1696 ft 80 kts 208°
2026-05-09 12:22 -37.99286 -57.36862 1699 ft 82 kts 209°
2026-05-09 12:23 -37.99763 -57.37275 1712 ft 84 kts 210°
2026-05-09 12:23 -38.00249 -57.37698 1702 ft 86 kts 210°
2026-05-09 12:23 -38.00748 -57.38132 1700 ft 88 kts 210°
2026-05-09 12:23 -38.01254 -57.38574 1701 ft 89 kts 210°
2026-05-09 12:24 -38.01754 -57.39018 1704 ft 90 kts 213°
2026-05-09 12:24 -38.02064 -57.39743 1699 ft 104 kts 246°
2026-05-09 12:24 -38.01873 -57.40712 1704 ft 128 kts 285°
2026-05-09 12:24 -38.01370 -57.41637 1700 ft 125 kts 285°
2026-05-09 12:25 -38.00900 -57.42559 1695 ft 124 kts 284°
2026-05-09 12:25 -38.00434 -57.43486 1695 ft 124 kts 284°
2026-05-09 12:25 -37.99973 -57.44392 1692 ft 121 kts 284°
2026-05-09 12:25 -37.99525 -57.45274 1696 ft 117 kts 283°
2026-05-09 12:26 -37.99092 -57.46131 1693 ft 114 kts 282°
2026-05-09 12:26 -37.98668 -57.46969 1682 ft 112 kts 282°
2026-05-09 12:26 -37.98248 -57.47801 1674 ft 112 kts 282°
2026-05-09 12:26 -37.97828 -57.48632 1668 ft 112 kts 282°
2026-05-09 12:27 -37.97409 -57.49460 1669 ft 111 kts 282°
2026-05-09 12:27 -37.96990 -57.50288 1667 ft 112 kts 283°
2026-05-09 12:27 -37.96574 -57.51111 1643 ft 115 kts 284°
2026-05-09 12:27 -37.96129 -57.52009 1540 ft 126 kts 287°
2026-05-09 12:28 -37.95637 -57.52983 1439 ft 136 kts 288°
2026-05-09 12:28 -37.95110 -57.54011 1328 ft 142 kts 289°
2026-05-09 12:28 -37.94557 -57.55073 972 ft 143 kts 292°
2026-05-09 12:28 -37.94021 -57.56176 220 ft 141 kts 300°
2026-05-09 12:29 -37.93544 -57.57123 73 ft 111 kts 302°
2026-05-09 12:29 -37.93166 -57.57871 49 ft 87 kts 304°
2026-05-09 12:29 -37.92950 -57.58247 47 ft 24 kts 302°
2026-05-09 12:29 -37.92930 -57.58360 47 ft 10 kts 213°
2026-05-09 12:30 -37.92993 -57.58414 48 ft 12 kts 217°
2026-05-09 12:30 -37.93067 -57.58477 48 ft 13 kts 214°
2026-05-09 12:30 -37.93114 -57.58489 48 ft 3 kts 257°
2026-05-09 12:31 -37.93113 -57.58512 48 ft 0 kts 297°
2026-05-09 12:31 -37.93113 -57.58511 48 ft 0 kts 297°